Regional Weather Roundup
Issued by NWS

Home | Current Version | Previous Version | Text Only | Print | Product List | Glossary On
Versions: 1 2 3 4 5 6 7 8 9 10 11 12 13 14 15 16 17 18 19 20 21 22 23 24 25 26 27 28 29 30 31 32 33 34 35 36 37 38 39 40 41 42 43 44 45 46 47 48 49 50
000
ASHW40 PHFO 181910
RWRHI

WEATHER ROUNDUP FOR HAWAII
NATIONAL WEATHER SERVICE HONOLULU HI
900 AM HST SAT APR 18 2015

THIS IS AN AUTOMATED REPORT THAT HAS NOT BEEN QUALITY CONTROLLED.

NOTE..."FAIR" INDICATES FEW OR NO CLOUDS BELOW 12,000 FEET WITH NO
SIGNIFICANT WEATHER AND/OR OBSTRUCTIONS TO VISIBILITY.

* - THESE SITES REPORT LIMITED FIELDS

HIZ001>004-182000-
KAUAI-NIIHAU-

CITY           SKY/WX    TMP DP  RH WIND       PRES   REMARKS
LIHUE APT      PTSUNNY   78  66  66 NE12      30.18R
PORT ALLEN*      N/A     79 N/A N/A E18G24      N/A
POIPU*           N/A     79 N/A N/A NE9G17      N/A
PRINCEVILLE*     N/A     75 N/A N/A MISG        N/A
KOKOLE POINT*  NOT AVBL
MOLOAA DAIRY*  NOT AVBL
WAIMEA HTS*    NOT AVBL
PUU OPAE*      NOT AVBL
PUU LUA*       NOT AVBL
MAKAHA RIDGE*  NOT AVBL
$$

HIZ005>011-182000-
OAHU-

CITY           SKY/WX    TMP DP  RH WIND       PRES   REMARKS
HONOLULU       MOSUNNY   79  65  62 E17G23    30.14R
KALAELOA       SUNNY     80  63  55 E12G17    30.14S
KANEOHE MCB    CLOUDY    77  67  71 NE12G23   30.14R
WHEELER FIELD  NOT AVBL
BELLOWS*       NOT AVBL
KAHUKU*        NOT AVBL
WHEELER*       NOT AVBL
WAIANAE HARBOR NOT AVBL
DILLINGHAM*      N/A     63  45  51 MISG        N/A
KAHUKU TRN*      N/A     75  66  73 E12G23      N/A
KAWAILOA*        N/A     72  64  78 E12G23      N/A
KII*             N/A     75  68  78 E20G26      N/A
MAKUA RANGE*     N/A     82  61  47 E8G18       N/A
OAHU FOREST NW NOT AVBL
SCHOFIELD BRK*   N/A     61  50  67 MISG        N/A
SCHOFIELD S*   NOT AVBL
WAIANAE VLY*   NOT AVBL
KUAOKALA*      NOT AVBL
HONOULIUULI*   NOT AVBL
MOKUOLOE IS*   NOT AVBL
PALEHUA*       NOT AVBL
WAIAWA PHB*    NOT AVBL
$$

HIZ012>013-182000-
MOLOKAI-

CITY           SKY/WX    TMP DP  RH WIND       PRES   REMARKS
MOLOKAI AIRPT  MOSUNNY   77  63  61 NE16G25   30.13R
KALAUPAPA      NOT AVBL
MAKAPULAPAI*   NOT AVBL
MOLOKAI 1*     NOT AVBL
PUU ALII*      NOT AVBL
$$

HIZ016-182000-
KAHOOLAWE-

CITY           SKY/WX    TMP DP  RH WIND       PRES   REMARKS
KAHOOLAWE*     NOT AVBL
HAKIOAWA*      NOT AVBL
HONOKANAIA*      N/A     81  63  53 NE22G36   30.14R
KANELOA*         N/A     75  66  73 MISG      29.33S
KEALIALALO*    NOT AVBL
LUA MAKIKA*    NOT AVBL
$$

HIZ014>015-182000-
LANAI-

CITY           SKY/WX    TMP DP  RH WIND       PRES   REMARKS
LANAI CITY     FAIR      74  61  63 N6        30.17S
LANAI 1*       NOT AVBL
$$

HIZ017>028-182000-
MAUI-

CITY           SKY/WX    TMP DP  RH WIND       PRES   REMARKS
KAHULUI        MOSUNNY   80  64  58 NE17G25   30.14R
KAPALUA-W MAUI MOSUNNY   77  61  57 E21G32    30.13
HANA AIRPORT   PTSUNNY   77  66  69 E13       30.20S
HANA*          NOT AVBL
HALEAKALA SUMM   N/A     50   5  16 E16         N/A
MAALAEA BAY*   NOT AVBL
HALEAKALA*     NOT AVBL
KAUPO GAP*     NOT AVBL
KULA 1*        NOT AVBL
$$

HIZ023>026-182000-
BIG ISLAND OF HAWAII COAST AND LOWER SLOPES-

CITY           SKY/WX    TMP DP  RH WIND       PRES   REMARKS
KAILUA KONA    MOSUNNY   81  64  56 W6        30.07S
HILO           MOSUNNY   78  62  57 CALM      30.16R
HONOKAA*       NOT AVBL
KAWAIHAE MWT*  NOT AVBL
KAWAIHAE*        N/A     81 N/A N/A W9          N/A
SOUTH POINT*   NOT AVBL
UPOLU AIRPORT* NOT AVBL
KAMUELA*       CLEAR     70  57  64 NE23      30.21R
HAKALAU*         N/A     56  38  51 SE3         N/A
KALOKO-HONOKO* NOT AVBL
PALI 2*          N/A     70  50  49 N21G32      N/A
KEALAKOMO*       N/A     72  48  43 NE23G33     N/A
KAUPULEHU*     NOT AVBL
KAPAPALA*        N/A     77  46  32 NE8G18      N/A
LOWER KAHUKU*  NOT AVBL
PUHE CS*       NOT AVBL
PUHO CS*       NOT AVBL
PTA KEAMUKU*     N/A     70  48  46 CALM        N/A
WAIKOLOA*      NOT AVBL
$$

HIZ027>028-182000-
BIG ISLAND OF HAWAII INTERIOR AND SUMMMITS-

CITY           SKY/WX    TMP DP  RH WIND       PRES   REMARKS
BRADSHAW FIELD SUNNY     64  26  24 S7        30.39S
MK VISITOR CEN NOT AVBL
MAUNA KEA*       N/A     39 -11  11 SE15        N/A
MAUNA LOA*       N/A     50 -22   4 MISG        N/A
MAUNA LOA 1*   NOT AVBL
PTA KIPUKA*    NOT AVBL
PTA RANGE 17*    N/A     63  34  34 SE10G17     N/A
PTA WEST*        N/A     55  36  47 NW10        N/A
NENE CABIN*    NOT AVBL
AHUMOA*        NOT AVBL
PTA PORTABLE*  NOT AVBL
PUU MALI*        N/A     63  39  42 N5G10       N/A
$$

HIC003-182000-
NORTHWEST ISLANDS-

CITY           SKY/WX    TMP DP  RH WIND       PRES   REMARKS
MIDWAY ISLAND  SUNNY     73  64  73 CALM      30.22R
MIDWAY NOS*    NOT AVBL
FRENCH FRIGATE NOT AVBL
$$

PHZ110>124-180-182000-
BUOY REPORTS

STATION/POSITION TIME  TEMP    WIND        PRES    WAVE   SWELL
                       AIR SEA DIR/SP/G            HT/PER HT/DIR
                 (UTC) (F)     (DEG/KT/KT) (MB)    (FT/S) (FT/D)
BUOY 51001       NOT AVBL
BUOY 51101       1900   74 73   80/  8/ 10 1022.7R   6/ 9   5/340
BUOY 51100       1900   73 73  110/ 14/ 17 1023.2R
BUOY 51002       1900   78 78   70/ 21/ 25 1017.5R  10/ 8   5/100
BUOY 51003       1800   77 78   80/ 16/ 19 1018.5R   6/ 7   3
BUOY 51004       1816   76 77   60/ 19/ 25 1018.1R  10/ 9   7/ 90
BARBERS PT BUOY  NOT AVBL
WAIMEA BAY BUOY  1900      76                N/A     5/11
KAILUA BAY BUOY  1900      76                N/A     7/ 7   2/ 20
LANAI BUOY       1800      78                N/A     3/ 8   2/200
BARBERS PT 2     1900      78                N/A     5/13   2/260
PAUWELA MAUI     1900      76                N/A     7/10   2/340
HILO             1900      77                N/A     8/ 9   3/ 70
KANEOHE BAY BUOY 1900      75                N/A     6/ 7   2/360
HANALEI KAUAI    1900      76                N/A     7/11   3/320
KAHULUI HARBOR   1900   76 77   50/ 18/ 23 1020.3S
HONOLULU HARBOR  1900   79 77   80/  5/  9 1020.4R
KILO NALU        NOT AVBL
HILO HARBOR      1900   76 77  310/  5/  6 1021.0R
MOKUOLOE         1900   77 77   90/ 12/ 16 1021.3R
NAWILIWILI       1900   76      70/ 12/ 14 1021.6R
WHOTS BUOY       NOT AVBL
BUOY 51028       NOT AVBL
$$

......................KEY........................................
  SKY/WX - SKY CONDITIONS/PRESENT WEATHER
  TMP    - TEMPERATURE IN FAHRENHEIT
  DWPT   - DEWPOINT IN FAHRENHEIT
  RH     - RELATIVE HUMIDITY IN PERCENT
  WIND   - DIRECTION AND SPEED /MPH FOR ISLANDS...KTS FOR BUOYS/
  PRES   - MEAN SEA LEVEL PRESSURE IN INCHES OF HG
  VSB    - VISIBILITY IN MILES
  HX     - HEAT INDEX
  WCI    - WIND CHILL INDEX
  VRB    - VARIABLE WIND DIRECTION
  N/A    - NOT AVAILABLE


USA.gov is the U.S. government's official web portal to all federal, state and local government web resources and services.